Weather History for State College, PA

Change the Weather History Date:

Monday, September 30, 2013

  Actual Average Record
Temperature  
Mean Temperature 60 °F -  
Max Temperature 75 °F 66 °F 90 °F (1953)
Min Temperature 46 °F 46 °F 33 °F (1951)
Degree Days  
Heating Degree Days 4    
Growing Degree Days 10 (Base 50)    
Moisture  
Dew Point 49 °F    
Average Humidity 80    
Maximum Humidity 100    
Minimum Humidity 38    
Precipitation  
Precipitation 0.00 in - - ()
Sea Level Pressure  
Sea Level Pressure 30.06 in    
Wind  
Wind Speed 1 mph (SW)    
Max Wind Speed 6 mph    
Max Gust Speed -    
Visibility 10 miles    
Events      
Averages and records for this station are not official NWS values.
T = Trace of Precipitation, MM = Missing Value Source: NWS Daily Summary

Daily Weather History Graph

Daily Weather History Graph

Search for Another Location

Airport:

Trip Planner

Search our weather history database for the weather conditions in past years. The results will help you decide how hot, cold, wet, or windy it might be!

Date:

Astronomy

Sep. 30, 2013 Rise Set
Actual Time 7:07 AM EDT 6:54 PM EDT
Civil Twilight 6:39 AM EDT 7:21 PM EDT
Nautical Twilight 6:07 AM EDT 7:53 PM EDT
Astronomical Twilight 5:35 AM EDT 8:25 PM EDT
Moon 2:40 AM EDT (9/30) 4:25 PM EDT (9/30)
Length of Visible Light 12h 42m
Length of Day
11h 47m
Waning Crescent, 19% of the Moon is Illuminated
Sep 30
Waning Crescent
Oct 4
New
Oct 11
First Quarter
Oct 18
Full
Oct 26
Last Quarter

Hourly Weather History & Observations

Time (EDT) Temp. Dew Point Humidity Pressure Visibility Wind Dir Wind Speed Gust Speed Precip Events Conditions
12:15 AM 53.2 °F 47.1 °F 80% 30.08 in 10.0 mi Calm Calm - N/A   Scattered Clouds
12:35 AM 51.8 °F 47.5 °F 85% 30.06 in 10.0 mi Calm Calm - N/A   Scattered Clouds
12:55 AM 52.0 °F 47.5 °F 85% 30.07 in 10.0 mi Calm Calm - N/A   Scattered Clouds
1:15 AM 51.8 °F 47.3 °F 85% 30.07 in 10.0 mi Calm Calm - N/A   Scattered Clouds
1:35 AM 49.8 °F 46.4 °F 88% 30.08 in 10.0 mi SE 3.5 mph - N/A   Mostly Cloudy
1:55 AM 48.2 °F 46.8 °F 95% 30.08 in 10.0 mi Calm Calm - N/A   Scattered Clouds
2:15 AM 49.3 °F 47.1 °F 92% 30.08 in 10.0 mi Calm Calm - N/A   Mostly Cloudy
2:35 AM 50.2 °F 47.1 °F 89% 30.08 in 10.0 mi Calm Calm - N/A   Mostly Cloudy
2:55 AM 48.7 °F 47.3 °F 95% 30.07 in 10.0 mi Calm Calm - N/A   Mostly Cloudy
3:15 AM 47.7 °F 46.4 °F 95% 30.06 in 10.0 mi Calm Calm - N/A   Scattered Clouds
3:35 AM 47.8 °F 46.2 °F 94% 30.06 in 10.0 mi WNW 5.8 mph - N/A   Clear
3:55 AM 48.9 °F 46.9 °F 93% 30.06 in 10.0 mi WSW 3.5 mph - N/A   Scattered Clouds
4:15 AM 47.3 °F 45.7 °F 94% 30.06 in 10.0 mi Calm Calm - N/A   Scattered Clouds
4:35 AM 46.4 °F 45.5 °F 97% 30.07 in 10.0 mi Calm Calm - N/A   Mostly Cloudy
4:55 AM 47.8 °F 46.6 °F 95% 30.07 in 10.0 mi Calm Calm - N/A   Mostly Cloudy
5:15 AM 47.7 °F 46.6 °F 96% 30.07 in 10.0 mi Calm Calm - N/A   Mostly Cloudy
5:35 AM 46.9 °F 46.0 °F 97% 30.07 in 10.0 mi Calm Calm - N/A   Mostly Cloudy
5:55 AM 46.4 °F 46.4 °F 100% 30.07 in 10.0 mi Calm Calm - N/A   Partly Cloudy
6:53 AM 46.4 °F 44.6 °F 93% 30.08 in 10.0 mi Calm Calm - N/A   Scattered Clouds
7:53 AM 46.4 °F 44.6 °F 93% 30.08 in 10.0 mi Calm Calm - N/A   Mostly Cloudy
8:53 AM 50.0 °F 48.2 °F 94% 30.09 in 10.0 mi Calm Calm - N/A   Mostly Cloudy
9:53 AM 53.6 °F 50.0 °F 88% 30.10 in 10.0 mi Calm Calm - N/A   Mostly Cloudy
10:53 AM 60.8 °F 50.0 °F 68% 30.09 in 10.0 mi Calm Calm - N/A   Scattered Clouds
11:53 AM 66.2 °F 50.0 °F 56% 30.08 in 10.0 mi Calm Calm - N/A   Partly Cloudy
12:53 PM 71.6 °F 51.8 °F 50% 30.06 in 10.0 mi Calm Calm - N/A   Partly Cloudy
1:53 PM 73.4 °F 50.0 °F 44% 30.03 in 10.0 mi SSW 5.8 mph - N/A   Scattered Clouds
2:53 PM 73.4 °F 48.2 °F 41% 30.01 in 10.0 mi West 3.5 mph - N/A   Scattered Clouds
3:53 PM 75.2 °F 48.2 °F 38% 30.09 in 10.0 mi WSW 5.8 mph - N/A   Scattered Clouds
4:53 PM 75.2 °F 50.0 °F 41% 29.99 in 10.0 mi SSW 3.5 mph - N/A   Scattered Clouds
5:53 PM 73.4 °F 50.0 °F 44% 29.99 in 10.0 mi SSW 4.6 mph - N/A   Scattered Clouds
7:53 PM 66.2 °F 51.8 °F 60% 30.02 in 10.0 mi Calm Calm - N/A   Scattered Clouds
8:53 PM 60.8 °F 53.6 °F 77% 30.03 in 10.0 mi SW 3.5 mph - N/A   Scattered Clouds
9:15 PM 61.0 °F 54.3 °F 79% 30.03 in 10.0 mi Calm Calm - N/A   Scattered Clouds
9:35 PM 61.2 °F 54.5 °F 79% 30.03 in 10.0 mi Calm Calm - N/A   Scattered Clouds
9:55 PM 61.5 °F 54.5 °F 78% 30.03 in 10.0 mi Calm Calm - N/A   Scattered Clouds
10:15 PM 60.6 °F 54.7 °F 81% 30.03 in 10.0 mi Calm Calm - N/A   Mostly Cloudy
10:35 PM 59.7 °F 54.5 °F 83% 30.04 in 10.0 mi SW 3.5 mph - N/A   Mostly Cloudy
10:55 PM 59.2 °F 54.9 °F 86% 30.04 in 10.0 mi Calm Calm - N/A   Mostly Cloudy
11:15 PM 59.0 °F 54.3 °F 84% 30.03 in 10.0 mi Calm Calm - N/A   Scattered Clouds
11:35 PM 58.1 °F 55.8 °F 92% 30.03 in 10.0 mi Calm Calm - N/A   Clear
11:55 PM 59.2 °F 55.8 °F 88% 30.03 in 10.0 mi Calm Calm - N/A   Clear